Year,Month,Day,Hour,Minute,Value (Times are PST for temperature in C)
2010,03,21,00,00,8.70
2010,03,21,00,01,8.70
2010,03,21,00,02,8.70
2010,03,21,00,03,8.70
2010,03,21,00,04,8.70
2010,03,21,00,05,8.70
2010,03,21,00,06,8.70
2010,03,21,00,07,8.60
2010,03,21,00,08,8.60
2010,03,21,00,09,8.60
2010,03,21,00,10,8.50
2010,03,21,00,11,8.50
2010,03,21,00,12,8.50
2010,03,21,00,13,8.50
2010,03,21,00,14,8.40
2010,03,21,00,15,8.40
2010,03,21,00,16,8.40
2010,03,21,00,17,8.40
2010,03,21,00,18,8.30
2010,03,21,00,19,8.30
2010,03,21,00,20,8.30
2010,03,21,00,21,8.30
2010,03,21,00,22,8.30
2010,03,21,00,23,8.30
2010,03,21,00,24,8.20
2010,03,21,00,25,8.20
2010,03,21,00,26,8.20
2010,03,21,00,27,8.20
2010,03,21,00,28,8.20
2010,03,21,00,29,8.20
2010,03,21,00,30,8.20
2010,03,21,00,31,8.20
2010,03,21,00,32,8.20
2010,03,21,00,33,8.20
2010,03,21,00,34,8.20
2010,03,21,00,35,8.20
2010,03,21,00,36,8.20
2010,03,21,00,37,8.20
2010,03,21,00,38,8.20
2010,03,21,00,39,8.20
2010,03,21,00,40,8.20
2010,03,21,00,41,8.20
2010,03,21,00,42,8.30
2010,03,21,00,43,8.30
2010,03,21,00,44,8.30
2010,03,21,00,45,8.30
2010,03,21,00,46,8.30
2010,03,21,00,47,8.30
2010,03,21,00,48,8.40
2010,03,21,00,49,8.40
2010,03,21,00,50,8.40
2010,03,21,00,51,8.50
2010,03,21,00,52,8.50
2010,03,21,00,53,8.50
2010,03,21,00,54,8.50
2010,03,21,00,55,8.50
2010,03,21,00,56,8.50
2010,03,21,00,57,8.50
2010,03,21,00,58,8.50
2010,03,21,00,59,8.50
2010,03,21,01,00,8.50
2010,03,21,01,01,8.50
2010,03,21,01,02,8.50
2010,03,21,01,03,8.60
2010,03,21,01,04,8.60
2010,03,21,01,05,8.60
2010,03,21,01,06,8.60
2010,03,21,01,07,8.60
2010,03,21,01,08,8.60
2010,03,21,01,09,8.60
2010,03,21,01,10,8.60
2010,03,21,01,11,8.60
2010,03,21,01,12,8.60
2010,03,21,01,13,8.60
2010,03,21,01,14,8.60
2010,03,21,01,15,8.60
2010,03,21,01,16,8.60
2010,03,21,01,17,8.50
2010,03,21,01,18,8.50
2010,03,21,01,19,8.50
2010,03,21,01,20,8.50
2010,03,21,01,21,8.50
2010,03,21,01,22,8.50
2010,03,21,01,23,8.50
2010,03,21,01,24,8.50
2010,03,21,01,25,8.50
2010,03,21,01,26,8.50
2010,03,21,01,27,8.50
2010,03,21,01,28,8.60
2010,03,21,01,29,8.60
2010,03,21,01,30,8.70
2010,03,21,01,31,8.70
2010,03,21,01,32,8.70
2010,03,21,01,33,8.70
2010,03,21,01,34,8.70
2010,03,21,01,35,8.80
2010,03,21,01,36,8.90
2010,03,21,01,37,8.90
2010,03,21,01,38,8.90
2010,03,21,01,39,9.00
2010,03,21,01,40,9.00
2010,03,21,01,41,9.10
2010,03,21,01,42,9.10
2010,03,21,01,43,9.10
2010,03,21,01,44,9.20
2010,03,21,01,45,9.20
2010,03,21,01,46,9.20
2010,03,21,01,47,9.20
2010,03,21,01,48,9.20
2010,03,21,01,49,9.30
2010,03,21,01,50,9.30
2010,03,21,01,51,9.30
2010,03,21,01,52,9.30
2010,03,21,01,53,9.30
2010,03,21,01,54,9.30
2010,03,21,01,55,9.30
2010,03,21,01,56,9.30
2010,03,21,01,57,9.30
2010,03,21,01,58,9.30
2010,03,21,01,59,9.30
2010,03,21,02,00,9.30
2010,03,21,02,01,9.30
2010,03,21,02,02,9.30
2010,03,21,02,03,9.30
2010,03,21,02,04,9.30
2010,03,21,02,05,9.20
2010,03,21,02,06,9.20
2010,03,21,02,07,9.20
2010,03,21,02,08,9.20
2010,03,21,02,09,9.20
2010,03,21,02,10,9.20
2010,03,21,02,11,9.20
2010,03,21,02,12,9.20
2010,03,21,02,13,9.20
2010,03,21,02,14,9.20
2010,03,21,02,15,9.20
2010,03,21,02,16,9.20
2010,03,21,02,17,9.20
2010,03,21,02,18,9.20
2010,03,21,02,19,9.20
2010,03,21,02,20,9.20
2010,03,21,02,21,9.20
2010,03,21,02,22,9.20
2010,03,21,02,23,9.20
2010,03,21,02,24,9.10
2010,03,21,02,25,9.10
2010,03,21,02,26,9.10
2010,03,21,02,27,9.10
2010,03,21,02,28,9.10
2010,03,21,02,29,9.10
2010,03,21,02,30,9.10
2010,03,21,02,31,9.00
2010,03,21,02,32,9.00
2010,03,21,02,33,9.10
2010,03,21,02,34,9.10
2010,03,21,02,35,9.10
2010,03,21,02,36,9.10
2010,03,21,02,37,9.10
2010,03,21,02,38,9.10
2010,03,21,02,39,9.10
2010,03,21,02,40,9.10
2010,03,21,02,41,9.10
2010,03,21,02,42,9.10
2010,03,21,02,43,9.10
2010,03,21,02,44,9.20
2010,03,21,02,45,9.20
2010,03,21,02,46,9.20
2010,03,21,02,47,9.20
2010,03,21,02,48,9.20
2010,03,21,02,49,9.20
2010,03,21,02,50,9.20
2010,03,21,02,51,9.20
2010,03,21,02,52,9.20
2010,03,21,02,53,9.20
2010,03,21,02,54,9.20
2010,03,21,02,55,9.20
2010,03,21,02,56,9.20
2010,03,21,02,57,9.20
2010,03,21,02,58,9.20
2010,03,21,02,59,9.20
2010,03,21,03,00,9.20
2010,03,21,03,01,9.20
2010,03,21,03,02,9.20
2010,03,21,03,03,9.20
2010,03,21,03,04,9.10
2010,03,21,03,05,9.10
2010,03,21,03,06,9.10
2010,03,21,03,07,9.10
2010,03,21,03,08,9.10
2010,03,21,03,09,9.10
2010,03,21,03,10,9.10
2010,03,21,03,11,9.00
2010,03,21,03,12,9.00
2010,03,21,03,13,9.00
2010,03,21,03,14,9.00
2010,03,21,03,15,9.00
2010,03,21,03,16,9.00
2010,03,21,03,17,9.00
2010,03,21,03,18,9.00
2010,03,21,03,19,9.00
2010,03,21,03,20,9.00
2010,03,21,03,21,9.00
2010,03,21,03,22,9.00
2010,03,21,03,23,8.90
2010,03,21,03,24,8.90
2010,03,21,03,25,8.90
2010,03,21,03,26,8.90
2010,03,21,03,27,8.90
2010,03,21,03,28,8.90
2010,03,21,03,29,8.90
2010,03,21,03,30,8.90
2010,03,21,03,31,8.90
2010,03,21,03,32,8.90
2010,03,21,03,33,9.00
2010,03,21,03,34,8.90
2010,03,21,03,35,8.90
2010,03,21,03,36,8.90
2010,03,21,03,37,8.90
2010,03,21,03,38,8.90
2010,03,21,03,39,8.90
2010,03,21,03,40,8.90
2010,03,21,03,41,8.80
2010,03,21,03,42,8.80
2010,03,21,03,43,8.80
2010,03,21,03,44,8.80
2010,03,21,03,45,8.90
2010,03,21,03,46,8.90
2010,03,21,03,47,8.90
2010,03,21,03,48,8.90
2010,03,21,03,49,8.90
2010,03,21,03,50,8.90
2010,03,21,03,51,8.90
2010,03,21,03,52,8.90
2010,03,21,03,53,9.00
2010,03,21,03,54,9.00
2010,03,21,03,55,9.20
2010,03,21,03,56,9.20
2010,03,21,03,57,9.20
2010,03,21,03,58,9.20
2010,03,21,03,59,9.30
2010,03,21,04,00,9.30
2010,03,21,04,01,9.40
2010,03,21,04,02,9.40
2010,03,21,04,03,9.50
2010,03,21,04,04,9.50
2010,03,21,04,05,9.50
2010,03,21,04,06,9.60
2010,03,21,04,07,9.60
2010,03,21,04,08,9.60
2010,03,21,04,09,9.60
2010,03,21,04,10,9.70
2010,03,21,04,11,9.70
2010,03,21,04,12,9.70
2010,03,21,04,13,9.70
2010,03,21,04,14,9.70
2010,03,21,04,15,9.70
2010,03,21,04,16,9.70
2010,03,21,04,17,9.70
2010,03,21,04,18,9.70
2010,03,21,04,19,9.70
2010,03,21,04,20,9.70
2010,03,21,04,21,9.80
2010,03,21,04,22,9.80
2010,03,21,04,23,9.80
2010,03,21,04,24,9.80
2010,03,21,04,25,9.90
2010,03,21,04,26,9.90
2010,03,21,04,27,9.90
2010,03,21,04,28,9.90
2010,03,21,04,29,9.90
2010,03,21,04,30,9.90
2010,03,21,04,31,10.00
2010,03,21,04,32,10.10
2010,03,21,04,33,10.10
2010,03,21,04,34,10.10
2010,03,21,04,35,10.10
2010,03,21,04,36,10.10
2010,03,21,04,37,10.10
2010,03,21,04,38,10.00
2010,03,21,04,39,9.90
2010,03,21,04,40,10.00
2010,03,21,04,41,10.10
2010,03,21,04,42,10.10
2010,03,21,04,43,10.10
2010,03,21,04,44,10.10
2010,03,21,04,45,10.10
2010,03,21,04,46,10.10
2010,03,21,04,47,10.10
2010,03,21,04,48,10.10
2010,03,21,04,49,10.10
2010,03,21,04,50,10.10
2010,03,21,04,51,10.00
2010,03,21,04,52,9.90
2010,03,21,04,53,9.90
2010,03,21,04,54,9.90
2010,03,21,04,55,9.90
2010,03,21,04,56,9.90
2010,03,21,04,57,9.90
2010,03,21,04,58,9.90
2010,03,21,04,59,9.90
2010,03,21,05,00,9.90
2010,03,21,05,01,9.90
2010,03,21,05,02,9.90
2010,03,21,05,03,9.90
2010,03,21,05,04,9.90
2010,03,21,05,05,9.90
2010,03,21,05,06,9.90
2010,03,21,05,07,9.80
2010,03,21,05,08,9.80
2010,03,21,05,09,9.80
2010,03,21,05,10,9.80
2010,03,21,05,11,9.70
2010,03,21,05,12,9.70
2010,03,21,05,13,9.70
2010,03,21,05,14,9.70
2010,03,21,05,15,9.70
2010,03,21,05,16,9.70
2010,03,21,05,17,9.70
2010,03,21,05,18,9.70
2010,03,21,05,19,9.70
2010,03,21,05,20,9.70
2010,03,21,05,21,9.70
2010,03,21,05,22,9.70
2010,03,21,05,23,9.70
2010,03,21,05,24,9.70
2010,03,21,05,25,9.70
2010,03,21,05,26,9.70
2010,03,21,05,27,9.70
2010,03,21,05,28,9.70
2010,03,21,05,29,9.70
2010,03,21,05,30,9.70
2010,03,21,05,31,9.70
2010,03,21,05,32,9.70
2010,03,21,05,33,9.70
2010,03,21,05,34,9.70
2010,03,21,05,35,9.60
2010,03,21,05,36,9.60
2010,03,21,05,37,9.60
2010,03,21,05,38,9.60
2010,03,21,05,39,9.50
2010,03,21,05,40,9.50
2010,03,21,05,41,9.50
2010,03,21,05,42,9.50
2010,03,21,05,43,9.40
2010,03,21,05,44,9.40
2010,03,21,05,45,9.40
2010,03,21,05,46,9.40
2010,03,21,05,47,9.30
2010,03,21,05,48,9.30
2010,03,21,05,49,9.30
2010,03,21,05,50,9.20
2010,03,21,05,51,9.20
2010,03,21,05,52,9.20
2010,03,21,05,53,9.20
2010,03,21,05,54,9.30
2010,03,21,05,55,9.30
2010,03,21,05,56,9.30
2010,03,21,05,57,9.40
2010,03,21,05,58,9.50
2010,03,21,05,59,9.50
2010,03,21,06,00,9.60
2010,03,21,06,01,9.60
2010,03,21,06,02,9.70
2010,03,21,06,03,9.70
2010,03,21,06,04,9.70
2010,03,21,06,05,9.70
2010,03,21,06,06,9.70
2010,03,21,06,07,9.70
2010,03,21,06,08,9.70
2010,03,21,06,09,9.70
2010,03,21,06,10,9.80
2010,03,21,06,11,9.80
2010,03,21,06,12,9.80
2010,03,21,06,13,9.80
2010,03,21,06,14,9.90
2010,03,21,06,15,9.90
2010,03,21,06,16,9.90
2010,03,21,06,17,9.90
2010,03,21,06,18,9.90
2010,03,21,06,19,9.90
2010,03,21,06,20,9.90
2010,03,21,06,21,10.00
2010,03,21,06,22,10.10
2010,03,21,06,23,10.10
2010,03,21,06,24,10.10
2010,03,21,06,25,10.10
2010,03,21,06,26,10.10
2010,03,21,06,27,10.10
2010,03,21,06,28,10.10
2010,03,21,06,29,10.10
2010,03,21,06,30,10.10
2010,03,21,06,31,10.10
2010,03,21,06,32,10.10
2010,03,21,06,33,10.10
2010,03,21,06,34,10.10
2010,03,21,06,35,10.10
2010,03,21,06,36,10.10
2010,03,21,06,37,10.10
2010,03,21,06,38,10.10
2010,03,21,06,39,10.00
2010,03,21,06,40,9.90
2010,03,21,06,41,9.90
2010,03,21,06,42,9.80
2010,03,21,06,43,9.70
2010,03,21,06,44,9.70
2010,03,21,06,45,9.70
2010,03,21,06,46,9.70
2010,03,21,06,47,9.60
2010,03,21,06,48,9.60
2010,03,21,06,49,9.60
2010,03,21,06,50,9.60
2010,03,21,06,51,9.60
2010,03,21,06,52,9.60
2010,03,21,06,53,9.60
2010,03,21,06,54,9.60
2010,03,21,06,55,9.60
2010,03,21,06,56,9.50
2010,03,21,06,57,9.50
2010,03,21,06,58,9.50
2010,03,21,06,59,9.50
2010,03,21,07,00,9.40
2010,03,21,07,01,9.40
2010,03,21,07,02,9.40
2010,03,21,07,03,9.40
2010,03,21,07,04,9.40
2010,03,21,07,05,9.40
2010,03,21,07,06,9.40
2010,03,21,07,07,9.40
2010,03,21,07,08,9.40
2010,03,21,07,09,9.40
2010,03,21,07,10,9.40
2010,03,21,07,11,9.40
2010,03,21,07,12,9.40
2010,03,21,07,13,9.40
2010,03,21,07,14,9.30
2010,03,21,07,15,9.30
2010,03,21,07,16,9.30
2010,03,21,07,17,9.30
2010,03,21,07,18,9.30
2010,03,21,07,19,9.30
2010,03,21,07,20,9.30
2010,03,21,07,21,9.30
2010,03,21,07,22,9.20
2010,03,21,07,23,9.20
2010,03,21,07,24,9.20
2010,03,21,07,25,9.20
2010,03,21,07,26,9.20
2010,03,21,07,27,9.20
2010,03,21,07,28,9.20
2010,03,21,07,29,9.20
2010,03,21,07,30,9.20
2010,03,21,07,31,9.20
2010,03,21,07,32,9.20
2010,03,21,07,33,9.20
2010,03,21,07,34,9.20
2010,03,21,07,35,9.20
2010,03,21,07,36,9.20
2010,03,21,07,37,9.20
2010,03,21,07,38,9.20
2010,03,21,07,39,9.20
2010,03,21,07,40,9.20
2010,03,21,07,41,9.20
2010,03,21,07,42,9.20
2010,03,21,07,43,9.20
2010,03,21,07,44,9.20
2010,03,21,07,45,9.20
2010,03,21,07,46,9.20
2010,03,21,07,47,9.10
2010,03,21,07,48,9.10
2010,03,21,07,49,9.10
2010,03,21,07,50,9.10
2010,03,21,07,51,9.10
2010,03,21,07,52,9.00
2010,03,21,07,53,9.00
2010,03,21,07,54,9.00
2010,03,21,07,55,9.00
2010,03,21,07,56,9.00
2010,03,21,07,57,9.00
2010,03,21,07,58,9.00
2010,03,21,07,59,9.00
2010,03,21,08,00,8.90
2010,03,21,08,01,8.90
2010,03,21,08,02,8.90
2010,03,21,08,03,8.90
2010,03,21,08,04,8.90
2010,03,21,08,05,8.80
2010,03,21,08,06,8.80
2010,03,21,08,07,8.80
2010,03,21,08,08,8.80
2010,03,21,08,09,8.80
2010,03,21,08,10,8.80
2010,03,21,08,11,8.80
2010,03,21,08,12,8.70
2010,03,21,08,13,8.70
2010,03,21,08,14,8.70
2010,03,21,08,15,8.70
2010,03,21,08,16,8.70
2010,03,21,08,17,8.70
2010,03,21,08,18,8.70
2010,03,21,08,19,8.70
2010,03,21,08,20,8.70
2010,03,21,08,21,8.70
2010,03,21,08,22,8.70
2010,03,21,08,23,8.70
2010,03,21,08,24,8.70
2010,03,21,08,25,8.70
2010,03,21,08,26,8.70
2010,03,21,08,27,8.70
2010,03,21,08,28,8.70
2010,03,21,08,29,8.70
2010,03,21,08,30,8.70
2010,03,21,08,31,8.70
2010,03,21,08,32,8.70
2010,03,21,08,33,8.70
2010,03,21,08,34,8.70
2010,03,21,08,35,8.70
2010,03,21,08,36,8.70
2010,03,21,08,37,8.70
2010,03,21,08,38,8.70
2010,03,21,08,39,8.70
2010,03,21,08,40,8.70
2010,03,21,08,41,8.70
2010,03,21,08,42,8.70
2010,03,21,08,43,8.70
2010,03,21,08,44,8.70
2010,03,21,08,45,8.80
2010,03,21,08,46,8.80
2010,03,21,08,47,8.80
2010,03,21,08,48,8.80
2010,03,21,08,49,8.80
2010,03,21,08,50,8.90
2010,03,21,08,51,8.90
2010,03,21,08,52,8.90
2010,03,21,08,53,8.90
2010,03,21,08,54,8.90
2010,03,21,08,55,8.90
2010,03,21,08,56,8.90
2010,03,21,08,57,8.90
2010,03,21,08,58,8.90
2010,03,21,08,59,9.00
2010,03,21,09,00,9.00
2010,03,21,09,01,9.00
2010,03,21,09,02,9.00
2010,03,21,09,03,9.00
2010,03,21,09,04,9.10
2010,03,21,09,05,9.10
2010,03,21,09,06,9.10
2010,03,21,09,07,9.10
2010,03,21,09,08,9.10
2010,03,21,09,09,9.10
2010,03,21,09,10,9.10
2010,03,21,09,11,9.10
2010,03,21,09,12,9.10
2010,03,21,09,13,9.20
2010,03,21,09,14,9.20
2010,03,21,09,15,9.20
2010,03,21,09,16,9.20
2010,03,21,09,17,9.20
2010,03,21,09,18,9.20
2010,03,21,09,19,9.30
2010,03,21,09,20,9.30
2010,03,21,09,21,9.30
2010,03,21,09,22,9.30
2010,03,21,09,23,9.30
2010,03,21,09,24,9.30
2010,03,21,09,25,9.20
2010,03,21,09,26,9.20
2010,03,21,09,27,9.20
2010,03,21,09,28,9.30
2010,03,21,09,29,9.30
2010,03,21,09,30,9.30
2010,03,21,09,31,9.30
2010,03,21,09,32,9.40
2010,03,21,09,33,9.40
2010,03,21,09,34,9.40
2010,03,21,09,35,9.40
2010,03,21,09,36,9.40
2010,03,21,09,37,9.40
2010,03,21,09,38,9.40
2010,03,21,09,39,9.30
2010,03,21,09,40,9.40
2010,03,21,09,41,9.40
2010,03,21,09,42,9.40
2010,03,21,09,43,9.40
2010,03,21,09,44,9.50
2010,03,21,09,45,9.50
2010,03,21,09,46,9.50
2010,03,21,09,47,9.60
2010,03,21,09,48,9.60
2010,03,21,09,49,9.60
2010,03,21,09,50,9.70
2010,03,21,09,51,9.70
2010,03,21,09,52,9.70
2010,03,21,09,53,9.70
2010,03,21,09,54,9.70
2010,03,21,09,55,9.70
2010,03,21,09,56,9.70
2010,03,21,09,57,9.70
2010,03,21,09,58,9.70
2010,03,21,09,59,9.70
2010,03,21,10,00,9.70
2010,03,21,10,01,9.70
2010,03,21,10,02,9.70
2010,03,21,10,03,9.70
2010,03,21,10,04,9.70
2010,03,21,10,05,9.70
2010,03,21,10,06,9.70
2010,03,21,10,07,9.70
2010,03,21,10,08,9.70
2010,03,21,10,09,9.70
2010,03,21,10,10,9.80
2010,03,21,10,11,9.80
2010,03,21,10,12,9.80
2010,03,21,10,13,9.80
2010,03,21,10,14,9.90
2010,03,21,10,15,9.90
2010,03,21,10,16,9.90
2010,03,21,10,17,9.90
2010,03,21,10,18,9.90
2010,03,21,10,19,9.90
2010,03,21,10,20,9.90
2010,03,21,10,21,9.90
2010,03,21,10,22,9.90
2010,03,21,10,23,9.90
2010,03,21,10,24,9.90
2010,03,21,10,25,9.90
2010,03,21,10,26,10.00
2010,03,21,10,27,10.10
2010,03,21,10,28,10.00
2010,03,21,10,29,9.90
2010,03,21,10,30,10.10
2010,03,21,10,31,10.10
2010,03,21,10,32,10.10
2010,03,21,10,33,10.10
2010,03,21,10,34,10.10
2010,03,21,10,35,10.10
2010,03,21,10,36,10.10
2010,03,21,10,37,10.10
2010,03,21,10,38,10.10
2010,03,21,10,39,10.10
2010,03,21,10,40,10.10
2010,03,21,10,41,10.10
2010,03,21,10,42,10.20
2010,03,21,10,43,10.20
2010,03,21,10,44,10.20
2010,03,21,10,45,10.30
2010,03,21,10,46,10.30
2010,03,21,10,47,10.30
2010,03,21,10,48,10.40
2010,03,21,10,49,10.40
2010,03,21,10,50,10.50
2010,03,21,10,51,10.60
2010,03,21,10,52,10.60
2010,03,21,10,53,10.60
2010,03,21,10,54,10.60
2010,03,21,10,55,10.60
2010,03,21,10,56,10.70
2010,03,21,10,57,10.80
2010,03,21,10,58,10.90
2010,03,21,10,59,11.00
2010,03,21,11,00,11.10
2010,03,21,11,01,11.10
2010,03,21,11,02,11.10
2010,03,21,11,03,11.20
2010,03,21,11,04,11.20
2010,03,21,11,05,11.30
2010,03,21,11,06,11.40
2010,03,21,11,07,11.50
2010,03,21,11,08,11.60
2010,03,21,11,09,11.60
2010,03,21,11,10,11.60
2010,03,21,11,11,11.70
2010,03,21,11,12,11.70
2010,03,21,11,13,11.80
2010,03,21,11,14,11.90
2010,03,21,11,15,12.00
2010,03,21,11,16,12.00
2010,03,21,11,17,12.10
2010,03,21,11,18,12.10
2010,03,21,11,19,12.20
2010,03,21,11,20,12.20
2010,03,21,11,21,12.30
2010,03,21,11,22,12.30
2010,03,21,11,23,12.30
2010,03,21,11,24,12.30
2010,03,21,11,25,12.30
2010,03,21,11,26,12.30
2010,03,21,11,27,12.30
2010,03,21,11,28,12.30
2010,03,21,11,29,12.30
2010,03,21,11,30,12.30
2010,03,21,11,31,12.30
2010,03,21,11,32,12.30
2010,03,21,11,33,12.30
2010,03,21,11,34,12.30
2010,03,21,11,35,12.30
2010,03,21,11,36,12.30
2010,03,21,11,37,12.30
2010,03,21,11,38,12.20
2010,03,21,11,39,12.20
2010,03,21,11,40,12.20
2010,03,21,11,41,12.10
2010,03,21,11,42,12.20
2010,03,21,11,43,12.20
2010,03,21,11,44,12.20
2010,03,21,11,45,12.30
2010,03,21,11,46,12.30
2010,03,21,11,47,12.30
2010,03,21,11,48,12.30
2010,03,21,11,49,12.30
2010,03,21,11,50,12.40
2010,03,21,11,51,12.50
2010,03,21,11,52,12.50
2010,03,21,11,53,12.50
2010,03,21,11,54,12.40
2010,03,21,11,55,12.40
2010,03,21,11,56,12.30
2010,03,21,11,57,12.30
2010,03,21,11,58,12.30
2010,03,21,11,59,12.30
2010,03,21,12,00,12.30
2010,03,21,12,01,12.30
2010,03,21,12,02,12.20
2010,03,21,12,03,12.20
2010,03,21,12,04,12.20
2010,03,21,12,05,12.20
2010,03,21,12,06,12.20
2010,03,21,12,07,12.20
2010,03,21,12,08,12.20
2010,03,21,12,09,12.30
2010,03,21,12,10,12.30
2010,03,21,12,11,12.30
2010,03,21,12,12,12.30
2010,03,21,12,13,12.30
2010,03,21,12,14,12.30
2010,03,21,12,15,12.30
2010,03,21,12,16,12.30
2010,03,21,12,17,12.30
2010,03,21,12,18,12.30
2010,03,21,12,19,12.30
2010,03,21,12,20,12.30
2010,03,21,12,21,12.30
2010,03,21,12,22,12.30
2010,03,21,12,23,12.30
2010,03,21,12,24,12.40
2010,03,21,12,25,12.40
2010,03,21,12,26,12.40
2010,03,21,12,27,12.40
2010,03,21,12,28,12.40
2010,03,21,12,29,12.40
2010,03,21,12,30,12.30
2010,03,21,12,31,12.30
2010,03,21,12,32,12.30
2010,03,21,12,33,12.30
2010,03,21,12,34,12.30
2010,03,21,12,35,12.30
2010,03,21,12,36,12.30
2010,03,21,12,37,12.30
2010,03,21,12,38,12.30
2010,03,21,12,39,12.30
2010,03,21,12,40,12.30
2010,03,21,12,41,12.30
2010,03,21,12,42,12.30
2010,03,21,12,43,12.30
2010,03,21,12,44,12.30
2010,03,21,12,45,12.30
2010,03,21,12,46,12.30
2010,03,21,12,47,12.30
2010,03,21,12,48,12.30
2010,03,21,12,49,12.30
2010,03,21,12,50,12.30
2010,03,21,12,51,12.30
2010,03,21,12,52,12.40
2010,03,21,12,53,12.40
2010,03,21,12,54,12.40
2010,03,21,12,55,12.50
2010,03,21,12,56,12.50
2010,03,21,12,57,12.50
2010,03,21,12,58,12.50
2010,03,21,12,59,12.50
2010,03,21,13,00,12.50
2010,03,21,13,01,12.50
2010,03,21,13,02,12.60
2010,03,21,13,03,12.70
2010,03,21,13,04,12.80
2010,03,21,13,05,12.80
2010,03,21,13,06,12.80
2010,03,21,13,07,12.90
2010,03,21,13,08,12.90
2010,03,21,13,09,13.00
2010,03,21,13,10,13.00
2010,03,21,13,11,13.00
2010,03,21,13,12,13.10
2010,03,21,13,13,13.10
2010,03,21,13,14,13.10
2010,03,21,13,15,13.10
2010,03,21,13,16,13.20
2010,03,21,13,17,13.20
2010,03,21,13,18,13.30
2010,03,21,13,19,13.30
2010,03,21,13,20,13.30
2010,03,21,13,21,13.40
2010,03,21,13,22,13.40
2010,03,21,13,23,13.50
2010,03,21,13,24,13.50
2010,03,21,13,25,13.50
2010,03,21,13,26,13.50
2010,03,21,13,27,13.60
2010,03,21,13,28,13.60
2010,03,21,13,29,13.60
2010,03,21,13,30,13.60
2010,03,21,13,31,13.60
2010,03,21,13,32,13.60
2010,03,21,13,33,13.60
2010,03,21,13,34,13.70
2010,03,21,13,35,13.70
2010,03,21,13,36,13.70
2010,03,21,13,37,13.70
2010,03,21,13,38,13.70
2010,03,21,13,39,13.70
2010,03,21,13,40,13.70
2010,03,21,13,41,13.70
2010,03,21,13,42,13.70
2010,03,21,13,43,13.70
2010,03,21,13,44,13.60
2010,03,21,13,45,13.60
2010,03,21,13,46,13.60
2010,03,21,13,47,13.60
2010,03,21,13,48,13.50
2010,03,21,13,49,13.60
2010,03,21,13,50,13.60
2010,03,21,13,51,13.60
2010,03,21,13,52,13.60
2010,03,21,13,53,13.60
2010,03,21,13,54,13.70
2010,03,21,13,55,13.70
2010,03,21,13,56,13.70
2010,03,21,13,57,13.60
2010,03,21,13,58,13.60
2010,03,21,13,59,13.60
2010,03,21,14,00,13.60
2010,03,21,14,01,13.50
2010,03,21,14,02,13.50
2010,03,21,14,03,13.50
2010,03,21,14,04,13.50
2010,03,21,14,05,13.40
2010,03,21,14,06,13.30
2010,03,21,14,07,13.30
2010,03,21,14,08,13.20
2010,03,21,14,09,13.20
2010,03,21,14,10,13.20
2010,03,21,14,11,13.20
2010,03,21,14,12,13.30
2010,03,21,14,13,13.30
2010,03,21,14,14,13.30
2010,03,21,14,15,13.30
2010,03,21,14,16,13.40
2010,03,21,14,17,13.40
2010,03,21,14,18,13.50
2010,03,21,14,19,13.50
2010,03,21,14,20,13.60
2010,03,21,14,21,13.60
2010,03,21,14,22,13.60
2010,03,21,14,23,13.70
2010,03,21,14,24,13.70
2010,03,21,14,25,13.60
2010,03,21,14,26,13.60
2010,03,21,14,27,13.60
2010,03,21,14,28,13.60
2010,03,21,14,29,13.60
2010,03,21,14,30,13.60
2010,03,21,14,31,13.70
2010,03,21,14,32,13.70
2010,03,21,14,33,13.70
2010,03,21,14,34,13.70
2010,03,21,14,35,13.70
2010,03,21,14,36,13.70
2010,03,21,14,37,13.60
2010,03,21,14,38,13.60
2010,03,21,14,39,13.60
2010,03,21,14,40,13.60
2010,03,21,14,41,13.60
2010,03,21,14,42,13.60
2010,03,21,14,43,13.50
2010,03,21,14,44,13.50
2010,03,21,14,45,13.40
2010,03,21,14,46,13.40
2010,03,21,14,47,13.40
2010,03,21,14,48,13.30
2010,03,21,14,49,13.30
2010,03,21,14,50,13.30
2010,03,21,14,51,13.30
2010,03,21,14,52,13.30
2010,03,21,14,53,13.30
2010,03,21,14,54,13.20
2010,03,21,14,55,13.20
2010,03,21,14,56,13.30
2010,03,21,14,57,13.30
2010,03,21,14,58,13.30
2010,03,21,14,59,13.30
2010,03,21,15,00,13.30
2010,03,21,15,01,13.30
2010,03,21,15,02,13.20
2010,03,21,15,03,13.20
2010,03,21,15,04,13.20
2010,03,21,15,05,13.20
2010,03,21,15,06,13.10
2010,03,21,15,07,13.10
2010,03,21,15,08,13.10
2010,03,21,15,09,13.10
2010,03,21,15,10,13.10
2010,03,21,15,11,13.10
2010,03,21,15,12,13.10
2010,03,21,15,13,13.00
2010,03,21,15,14,13.00
2010,03,21,15,15,13.00
2010,03,21,15,16,12.90
2010,03,21,15,17,12.90
2010,03,21,15,18,12.80
2010,03,21,15,19,12.80
2010,03,21,15,20,12.70
2010,03,21,15,21,12.60
2010,03,21,15,22,12.50
2010,03,21,15,23,12.40
2010,03,21,15,24,12.30
2010,03,21,15,25,12.30
2010,03,21,15,26,12.20
2010,03,21,15,27,12.00
2010,03,21,15,28,11.90
2010,03,21,15,29,11.80
2010,03,21,15,30,11.80
2010,03,21,15,31,11.70
2010,03,21,15,32,11.70
2010,03,21,15,33,11.70
2010,03,21,15,34,11.70
2010,03,21,15,35,11.70
2010,03,21,15,36,11.60
2010,03,21,15,37,11.60
2010,03,21,15,38,11.50
2010,03,21,15,39,11.40
2010,03,21,15,40,11.40
2010,03,21,15,41,11.30
2010,03,21,15,42,11.20
2010,03,21,15,43,11.10
2010,03,21,15,44,11.00
2010,03,21,15,45,10.90
2010,03,21,15,46,10.90
2010,03,21,15,47,10.90
2010,03,21,15,48,10.90
2010,03,21,15,49,10.90
2010,03,21,15,50,11.00
2010,03,21,15,51,11.10
2010,03,21,15,52,11.20
2010,03,21,15,53,11.30
2010,03,21,15,54,11.30
2010,03,21,15,55,11.40
2010,03,21,15,56,11.40
2010,03,21,15,57,11.50
2010,03,21,15,58,11.60
2010,03,21,15,59,11.60
2010,03,21,16,00,11.70
2010,03,21,16,01,11.80
2010,03,21,16,02,11.80
2010,03,21,16,03,11.80
2010,03,21,16,04,11.80
2010,03,21,16,05,11.90
2010,03,21,16,06,12.00
2010,03,21,16,07,12.10
2010,03,21,16,08,12.10
2010,03,21,16,09,12.20
2010,03,21,16,10,12.20
2010,03,21,16,11,12.20
2010,03,21,16,12,12.30
2010,03,21,16,13,12.30
2010,03,21,16,14,12.30
2010,03,21,16,15,12.30
2010,03,21,16,16,12.30
2010,03,21,16,17,12.40
2010,03,21,16,18,12.50
2010,03,21,16,19,12.50
2010,03,21,16,20,12.60
2010,03,21,16,21,12.60
2010,03,21,16,22,12.50
2010,03,21,16,23,12.50
2010,03,21,16,24,12.50
2010,03,21,16,25,12.40
2010,03,21,16,26,12.40
2010,03,21,16,27,12.40
2010,03,21,16,28,12.40
2010,03,21,16,29,12.40
2010,03,21,16,30,12.40
2010,03,21,16,31,12.30
2010,03,21,16,32,12.30
2010,03,21,16,33,12.20
2010,03,21,16,34,12.20
2010,03,21,16,35,12.20
2010,03,21,16,36,12.10
2010,03,21,16,37,12.10
2010,03,21,16,38,12.00
2010,03,21,16,39,12.00
2010,03,21,16,40,11.90
2010,03,21,16,41,11.90
2010,03,21,16,42,11.80
2010,03,21,16,43,11.80
2010,03,21,16,44,11.80
2010,03,21,16,45,11.80
2010,03,21,16,46,11.80
2010,03,21,16,47,11.80
2010,03,21,16,48,11.80
2010,03,21,16,49,11.70
2010,03,21,16,50,11.70
2010,03,21,16,51,11.60
2010,03,21,16,52,11.60
2010,03,21,16,53,11.50
2010,03,21,16,54,11.40
2010,03,21,16,55,11.40
2010,03,21,16,56,11.40
2010,03,21,16,57,11.30
2010,03,21,16,58,11.20
2010,03,21,16,59,11.10
2010,03,21,17,00,11.10
2010,03,21,17,01,11.00
2010,03,21,17,02,10.90
2010,03,21,17,03,10.90
2010,03,21,17,04,10.80
2010,03,21,17,05,10.80
2010,03,21,17,06,10.80
2010,03,21,17,07,10.70
2010,03,21,17,08,10.70
2010,03,21,17,09,10.70
2010,03,21,17,10,10.60
2010,03,21,17,11,10.60
2010,03,21,17,12,10.60
2010,03,21,17,13,10.60
2010,03,21,17,14,10.60
2010,03,21,17,15,10.60
2010,03,21,17,16,10.60
2010,03,21,17,17,10.50
2010,03,21,17,18,10.40
2010,03,21,17,19,10.40
2010,03,21,17,20,10.40
2010,03,21,17,21,10.40
2010,03,21,17,22,10.40
2010,03,21,17,23,10.30
2010,03,21,17,24,10.30
2010,03,21,17,25,10.30
2010,03,21,17,26,10.30
2010,03,21,17,27,10.20
2010,03,21,17,28,10.20
2010,03,21,17,29,10.20
2010,03,21,17,30,10.20
2010,03,21,17,31,10.20
2010,03,21,17,32,10.20
2010,03,21,17,33,10.20
2010,03,21,17,34,10.20
2010,03,21,17,35,10.10
2010,03,21,17,36,10.10
2010,03,21,17,37,10.10
2010,03,21,17,38,10.10
2010,03,21,17,39,10.10
2010,03,21,17,40,10.10
2010,03,21,17,41,10.10
2010,03,21,17,42,10.10
2010,03,21,17,43,10.10
2010,03,21,17,44,10.10
2010,03,21,17,45,10.10